COSMOS 894

导读 | 星芒AI

COSMOS 894 是苏联于1977年12月19日发射的一颗军用卫星,主要用于电子侦察任务。该卫星由联盟-U火箭从拜科努尔航天发射场发射升空。COSMOS 894 属于苏联广泛部署的侦察卫星系列,旨在收集外国通信和雷达信号情报。其具体技术细节和任务内容未公开,但其存在反映了冷战期间苏联在空间情报领域的活跃程度。该卫星最终在轨道上失联,成为太空碎片的一部分。

基本信息
目录编号:
9846
目录名称:
COSMOS 894
国际标识:
1977-013A
轨道中心:
EARTH
卫星名称:
COSMOS 894
卫星全名:
--
卫星状态:
在轨 (已飞行17782 天)
发射日期:
1977-02-21 UTC
国别 :
俄罗斯(独联体) (CIS)
星等 :
--
轨道信息
数据来源 国际轨道数据
星历时间: 2025-10-28T18:36:05+0800
20小时前
查看轨道信息
半长轴: 7362.736km
偏心率: 0.0030901
轨道倾角: 82.940°
近地点辐角 132.620°
升交点赤经 268.573°
平近点角 341.499°
近地点: 961.849km
远地点: 1007.353km
周期: 104.790分钟
每日圈数: 13.74181
详细信息
使用方式:
暂无
2D轨道图
3D轨道图
轨道高度分析图
轨道倾角分析图
轨道综合分析图
查看轨道综合分析图